CW5988 Weather Reports


time (UTC)temp
C
wind
direction
speed
KPH
gust
KPH
rain 1hr
cm
rain 24hr
cm
rain mn
cm
humidity
%
barometer
mb
20260904163931 15 264 11.3 24.1 0.00 0.05 0.00 83 1014.5
20260904163436 15 271 16.1 24.1 0.00 0.05 0.00 81 1014.4
20260904162920 16 305 11.3 22.5 0.00 0.05 0.00 81 1014.4
20260904162425 16 306 11.3 22.5 0.00 0.05 0.00 81 1014.3
20260904161930 16 265 11.3 20.9 0.00 0.05 0.00 80 1014.2
20260904161432 16 296 9.7 19.3 0.00 0.05 0.00 80 1014.2
20260904160916 16 273 11.3 19.3 0.00 0.05 0.00 80 1014.1
20260904160438 16 287 9.7 17.7 0.00 0.05 0.00 80 1014.2
20260904155920 16 318 9.7 17.7 0.00 0.05 0.00 80 1014.2
20260904155420 16 284 8.0 19.3 0.00 0.05 0.00 80 1014.1
20260904154923 16 294 12.9 19.3 0.00 0.05 0.00 80 1014.1
20260904154425 16 289 12.9 19.3 0.00 0.05 0.00 80 1014.1
20260904153925 16 296 8.0 16.1 0.00 0.05 0.00 81 1014.0
20260904153423 16 350 6.4 16.1 0.00 0.05 0.00 81 1014.0
20260904152955 16 306 11.3 16.1 0.00 0.05 0.00 82 1013.9
20260904152418 15 263 8.0 14.5 0.00 0.05 0.00 83 1014.0
20260904151923 15 304 8.0 14.5 0.00 0.05 0.00 83 1013.9
20260904151446 15 285 6.4 14.5 0.00 0.05 0.00 83 1013.9
20260904150928 15 226 8.0 14.5 0.00 0.05 0.00 83 1014.0
20260904150429 15 282 6.4 14.5 0.00 0.05 0.00 83 1013.8
20260904145934 15 289 9.7 14.5 0.00 0.05 0.00 83 1013.8
20260904145417 15 275 6.4 14.5 0.00 0.05 0.00 84 1013.7
20260904144922 15 277 8.0 14.5 0.00 0.05 0.00 84 1013.6
20260904144426 15 280 9.7 14.5 0.00 0.05 0.00 84 1013.5
20260904143931 15 235 6.4 14.5 0.00 0.05 0.00 84 1013.5
20260904143417 15 228 8.0 14.5 0.00 0.05 0.00 84 1013.4
20260904142923 15 282 6.4 12.9 0.00 0.05 0.00 84 1013.3
20260904142443 14 237 6.4 11.3 0.00 0.05 0.00 84 1013.2
20260904141926 14 261 8.0 11.3 0.00 0.05 0.00 84 1013.2
20260904141431 14 226 6.4 12.9 0.00 0.05 0.00 84 1013.1
20260904140936 14 207 8.0 12.9 0.00 0.05 0.00 84 1013.1
20260904140441 14 313 6.4 11.3 0.00 0.05 0.00 84 1013.0
20260904135924 14 258 6.4 11.3 0.00 0.05 0.00 84 1013.0
20260904135426 14 240 8.0 11.3 0.00 0.05 0.00 84 1012.9
20260904134929 14 273 6.4 9.7 0.00 0.05 0.00 84 1012.9
20260904134435 14 280 6.4 9.7 0.00 0.05 0.00 84 1012.9
20260904133951 14 261 3.2 9.7 0.00 0.05 0.00 84 1012.9
20260904133417 14 286 6.4 11.3 0.00 0.05 0.00 85 1012.9
20260904132921 14 275 6.4 11.3 0.00 0.05 0.00 85 1012.9
20260904132427 15 271 6.4 14.5 0.00 0.05 0.00 85 1012.7
20260904131929 15 247 8.0 14.5 0.00 0.05 0.00 85 1012.7
20260904131437 15 276 9.7 14.5 0.00 0.05 0.00 85 1012.8
20260904130954 15 290 9.7 14.5 0.00 0.05 0.00 85 1012.7
20260904130421 15 285 8.0 14.5 0.00 0.05 0.00 85 1012.7
20260904125946 15 284 9.7 14.5 0.00 0.05 0.00 85 1012.7
20260904125431 15 256 4.8 17.7 0.00 0.05 0.00 85 1012.7
20260904124932 15 298 9.7 17.7 0.00 0.05 0.00 84 1012.7
20260904124420 15 284 9.7 14.5 0.00 0.05 0.00 84 1012.7
20260904123927 15 263 8.0 11.3 0.00 0.05 0.00 84 1012.6
20260904123435 15 271 6.4 12.9 0.00 0.05 0.00 84 1012.7
20260904122924 15 244 6.4 12.9 0.00 0.05 0.00 84 1012.7
20260904122430 15 268 8.0 14.5 0.00 0.05 0.00 84 1012.7
20260904121939 15 273 8.0 14.5 0.00 0.05 0.00 84 1012.7
20260904121426 15 268 6.4 14.5 0.00 0.05 0.00 85 1012.7
20260904120929 15 215 6.4 14.5 0.00 0.05 0.00 85 1012.7
20260904120436 15 270 9.7 12.9 0.00 0.05 0.00 85 1012.7
20260904115940 15 275 6.4 12.9 0.00 0.05 0.00 85 1012.7
20260904115425 15 252 8.0 14.5 0.00 0.05 0.00 85 1012.6
20260904114931 15 282 11.3 14.5 0.00 0.05 0.00 85 1012.6
20260904114417 15 268 8.0 11.3 0.00 0.05 0.00 85 1012.6
20260904113925 15 273 8.0 9.7 0.00 0.05 0.00 85 1012.6
20260904113456 15 261 8.0 11.3 0.00 0.05 0.00 86 1012.6
20260904112921 15 270 8.0 11.3 0.00 0.05 0.00 86 1012.7
20260904112430 15 273 8.0 12.9 0.00 0.05 0.00 86 1012.7
20260904111936 15 258 9.7 14.5 0.00 0.05 0.00 86 1012.6
20260904111422 15 284 8.0 14.5 0.00 0.05 0.00 86 1012.7
20260904110949 15 280 9.7 16.1 0.00 0.05 0.00 86 1012.7
20260904110430 15 295 9.7 14.5 0.00 0.05 0.00 86 1012.7
20260904105917 15 282 8.0 14.5 0.00 0.05 0.00 87 1012.6
20260904105425 15 289 8.0 14.5 0.00 0.05 0.00 87 1012.6
20260904104933 15 268 6.4 12.9 0.00 0.05 0.00 87 1012.6
20260904104447 15 254 4.8 12.9 0.00 0.05 0.00 87 1012.6
20260904103934 15 222 4.8 12.9 0.00 0.05 0.00 87 1012.5
20260904103442 15 273 6.4 12.9 0.00 0.05 0.00 87 1012.5
20260904102952 15 230 8.0 12.9 0.00 0.05 0.00 87 1012.5
20260904102445 15 282 8.0 16.1 0.00 0.05 0.00 87 1012.6
20260904101930 15 256 8.0 16.1 0.00 0.05 0.00 87 1012.5
20260904101417 15 263 8.0 16.1 0.00 0.05 0.00 87 1012.5
20260904100924 15 275 6.4 16.1 0.00 0.05 0.00 87 1012.5
20260904100430 15 275 11.3 16.1 0.00 0.05 0.00 87 1012.5
20260904095935 15 285 8.0 16.1 0.00 0.05 0.00 87 1012.5
20260904095423 15 282 8.0 16.1 0.00 0.05 0.00 86 1012.4
20260904094945 15 270 8.0 16.1 0.00 0.05 0.00 86 1012.4
20260904094430 15 292 6.4 17.7 0.00 0.05 0.00 86 1012.4
20260904093938 15 277 4.8 11.3 0.00 0.05 0.00 86 1012.4
20260904093423 15 244 3.2 8.0 0.00 0.05 0.00 86 1012.3
20260904092927 15 285 1.6 8.0 0.00 0.05 0.00 86 1012.4
20260904092433 15 330 3.2 11.3 0.00 0.05 0.00 86 1012.4
20260904091936 16 280 6.4 11.3 0.00 0.05 0.00 86 1012.5
20260904091423 16 337 6.4 12.9 0.00 0.05 0.00 86 1012.4
20260904090930 16 330 8.0 12.9 0.00 0.05 0.00 86 1012.3
20260904090437 16 349 4.8 11.3 0.00 0.05 0.00 86 1012.3
20260904085920 16 251 6.4 20.9 0.00 0.05 0.00 86 1012.3
20260904085449 16 295 11.3 20.9 0.00 0.05 0.00 86 1012.3
20260904084934 16 268 8.0 25.7 0.00 0.05 0.00 86 1012.3
20260904084419 16 296 11.3 25.7 0.00 0.05 0.00 86 1012.3
20260904083956 16 254 11.3 24.1 0.00 0.05 0.00 86 1012.2
20260904083441 16 239 11.3 20.9 0.00 0.05 0.00 86 1012.3
20260904082927 16 268 11.3 20.9 0.00 0.05 0.00 86 1012.2
20260904082432 16 282 9.7 19.3 0.00 0.05 0.00 86 1012.1
20260904081918 16 275 8.0 24.1 0.00 0.05 0.00 86 1012.1
20260904081422 16 290 14.5 29.0 0.00 0.05 0.00 86 1012.0
20260904080924 16 265 14.5 29.0 0.00 0.05 0.00 86 1012.1
20260904080428 16 237 11.3 24.1 0.00 0.05 0.00 86 1012.1
20260904075916 16 313 14.5 25.7 0.00 0.05 0.00 86 1012.1
20260904075425 16 264 16.1 25.7 0.00 0.05 0.00 86 1012.0
20260904074931 16 292 14.5 25.7 0.00 0.05 0.00 86 1012.0
20260904074437 16 273 14.5 25.7 0.00 0.05 0.00 86 1011.9
20260904073923 16 256 14.5 25.7 0.00 0.05 0.00 86 1012.1
20260904073426 16 285 14.5 24.1 0.00 0.05 0.00 85 1011.9
20260904072930 16 285 17.7 27.4 0.00 0.05 0.00 86 1011.9
20260904072439 16 287 17.7 27.4 0.00 0.05 0.00 86 1011.9
20260904071922 16 230 14.5 25.7 0.00 0.05 0.00 86 1012.0
20260904071430 16 277 14.5 24.1 0.00 0.05 0.00 86 1012.0
20260904070938 16 292 14.5 24.1 0.00 0.05 0.00 86 1012.0
20260904070442 16 295 12.9 20.9 0.00 0.05 0.00 86 1011.9
20260904065921 16 259 11.3 25.7 0.00 0.05 0.05 86 1012.0
20260904065457 16 277 14.5 25.7 0.00 0.05 0.05 85 1011.9
20260904064922 16 275 14.5 27.4 0.00 0.05 0.05 85 1012.0
20260904064427 16 259 14.5 27.4 0.00 0.05 0.05 85 1012.0
20260904063935 16 249 14.5 24.1 0.00 0.05 0.05 85 1011.8
20260904063422 16 302 14.5 25.7 0.00 0.05 0.05 85 1011.8
20260904062944 16 275 16.1 24.1 0.00 0.05 0.05 85 1011.9
20260904062431 16 249 12.9 20.9 0.00 0.05 0.05 85 1011.8
20260904061917 16 276 12.9 20.9 0.00 0.05 0.05 86 1011.8
20260904061423 16 296 11.3 17.7 0.00 0.05 0.05 86 1011.8
20260904060931 16 278 11.3 16.1 0.00 0.05 0.05 87 1011.8
20260904060435 16 261 8.0 12.9 0.00 0.05 0.05 87 1011.8
20260904055937 16 276 8.0 14.5 0.00 0.05 0.05 87 1011.9
20260904055450 16 256 8.0 12.9 0.00 0.05 0.05 87 1011.9
20260904054917 16 237 8.0 12.9 0.00 0.05 0.05 87 1012.0
20260904054425 16 280 6.4 20.9 0.00 0.05 0.05 87 1012.1
20260904053933 16 256 8.0 20.9 0.03 0.05 0.05 87 1012.2
20260904053419 16 278 12.9 20.9 0.03 0.05 0.05 87 1012.3
20260904052927 16 261 12.9 20.9 0.03 0.05 0.05 87 1012.4
20260904052436 16 257 11.3 22.5 0.03 0.05 0.05 87 1012.4
20260904051922 16 237 11.3 20.9 0.03 0.05 0.05 87 1012.5
20260904051421 16 252 11.3 20.9 0.03 0.05 0.05 88 1012.5
20260904050928 16 263 11.3 19.3 0.03 0.05 0.05 88 1012.5
20260904050434 16 275 9.7 19.3 0.03 0.05 0.05 88 1012.5
20260904045920 16 285 12.9 19.3 0.03 0.05 0.05 88 1012.5
20260904045432 16 311 12.9 20.9 0.03 0.05 0.05 88 1012.5
20260904044936 16 282 8.0 20.9 0.03 0.05 0.05 88 1012.6
20260904044440 16 276 9.7 20.9 0.03 0.05 0.05 88 1012.6
20260904043923 16 268 8.0 20.9 0.00 0.03 0.03 88 1012.6
20260904043429 16 316 11.3 17.7 0.00 0.03 0.03 88 1012.6
20260904042916 16 280 12.9 17.7 0.00 0.03 0.03 88 1012.6
20260904042424 16 268 8.0 19.3 0.00 0.03 0.03 88 1012.5
20260904041931 16 326 9.7 19.3 0.00 0.03 0.03 88 1012.5
20260904041434 16 282 8.0 16.1 0.00 0.03 0.03 88 1012.4
20260904040921 16 282 9.7 12.9 0.00 0.03 0.03 88 1012.3
20260904040426 16 278 4.8 8.0 0.03 0.03 0.03 88 1012.3
20260904035928 16 215 3.2 6.4 0.03 0.03 0.03 88 1012.2
20260904035434 16 268 1.6 3.2 0.03 0.03 0.03 88 1012.2
20260904034921 16 222 0.0 4.8 0.03 0.03 0.03 88 1012.2
20260904034429 16 215 1.6 4.8 0.03 0.03 0.03 88 1012.2
20260904033935 16 285 3.2 6.4 0.03 0.03 0.03 88 1012.0
20260904033421 16 261 4.8 8.0 0.03 0.03 0.03 87 1012.0
20260904032923 16 275 3.2 11.3 0.03 0.03 0.03 87 1012.0
20260904032425 16 290 6.4 11.3 0.03 0.03 0.03 87 1012.0
20260904031931 16 271 6.4 11.3 0.03 0.03 0.03 87 1011.9
20260904031418 16 212 4.8 11.3 0.03 0.03 0.03 87 1011.9
20260904030928 16 252 4.8 11.3 0.03 0.03 0.03 87 1011.9
20260904030435 16 290 3.2 11.3 0.00 0.00 0.00 87 1011.8
20260904025921 16 283 4.8 16.1 0.00 0.00 0.00 87 1011.8
20260904025424 16 289 6.4 19.3 0.00 0.00 0.00 87 1011.9
20260904024933 16 273 11.3 20.9 0.00 0.00 0.00 87 1011.9
20260904024435 16 329 11.3 20.9 0.00 0.00 0.00 87 1012.0
20260904023950 16 301 11.3 22.5 0.00 0.00 0.00 87 1012.0
20260904023436 16 268 11.3 22.5 0.00 0.00 0.00 87 1012.0
20260904022923 16 283 12.9 17.7 0.00 0.00 0.00 87 1012.1
20260904022431 16 310 9.7 22.5 0.00 0.00 0.00 86 1012.1
20260904021918 16 270 14.5 24.1 0.00 0.00 0.00 86 1012.1
20260904021423 16 284 12.9 24.1 0.00 0.00 0.00 86 1012.1
20260904020929 17 305 12.9 24.1 0.00 0.00 0.00 86 1012.2
20260904020436 17 242 11.3 20.9 0.00 0.00 0.00 86 1012.1
20260904015917 17 274 12.9 19.3 0.00 0.00 0.00 86 1012.0
20260904015425 17 256 12.9 19.3 0.00 0.00 0.00 86 1012.0
20260904014931 17 280 9.7 20.9 0.00 0.00 0.00 85 1012.1
20260904014436 17 273 4.8 25.7 0.00 0.00 0.00 85 1012.0
20260904013953 17 219 11.3 25.7 0.00 0.00 0.00 85 1012.0
20260904013420 17 221 8.0 24.1 0.00 0.00 0.00 85 1012.1
20260904012922 17 238 12.9 27.4 0.00 0.00 0.00 84 1012.1
20260904012430 18 219 14.5 27.4 0.00 0.00 0.00 84 1012.1
20260904011936 18 242 6.4 29.0 0.00 0.00 0.00 84 1012.0
20260904011422 18 276 9.7 27.4 0.00 0.00 0.00 84 1012.1
20260904010929 18 263 12.9 27.4 0.00 0.00 0.00 83 1012.0
20260904010436 18 206 11.3 20.9 0.00 0.00 0.00 83 1012.1
20260904005952 18 277 9.7 27.4 0.00 0.00 0.00 83 1012.2
20260904005436 18 305 16.1 27.4 0.00 0.00 0.00 82 1012.3
20260904004921 18 299 9.7 27.4 0.00 0.00 0.00 82 1012.3
20260904004444 19 230 11.3 32.2 0.00 0.00 0.00 82 1012.2
20260904003931 19 227 11.3 30.6 0.00 0.00 0.00 82 1012.2
20260904003418 19 195 12.9 33.8 0.00 0.00 0.00 82 1012.2
20260904002924 19 210 20.9 33.8 0.00 0.00 0.00 81 1012.3
20260904002428 19 207 12.9 30.6 0.00 0.00 0.00 81 1012.2
20260904001932 19 183 14.5 30.6 0.00 0.00 0.00 81 1012.3
20260904001418 19 194 14.5 27.4 0.00 0.00 0.00 81 1012.2
20260904000944 19 229 9.7 30.6 0.00 0.00 0.00 81 1012.5
20260904000432 19 245 12.9 32.2 0.00 0.00 0.00 80 1012.4
20260903235936 20 219 14.5 32.2 0.00 0.00 0.00 78 1012.4
20260903235424 20 203 6.4 25.7 0.00 0.00 0.00 77 1012.6
20260903234930 20 249 11.3 25.7 0.00 0.00 0.00 76 1012.5
20260903234432 20 214 8.0 20.9 0.00 0.00 0.00 75 1012.5
20260903233916 20 230 12.9 30.6 0.00 0.00 0.00 75 1012.5
20260903233421 20 259 14.5 32.2 0.00 0.00 0.00 75 1012.5
20260903232929 20 242 9.7 29.0 0.00 0.00 0.00 75 1012.6
20260903232435 20 220 14.5 29.0 0.00 0.00 0.00 75 1012.7
20260903231941 20 257 12.9 27.4 0.00 0.00 0.00 74 1012.6
20260903231442 20 249 14.5 30.6 0.00 0.00 0.00 74 1012.7
20260903230926 20 201 16.1 30.6 0.00 0.00 0.00 74 1012.9
20260903230434 21 242 12.9 29.0 0.00 0.00 0.00 74 1013.0
20260903225918 21 230 8.0 29.0 0.00 0.00 0.00 75 1013.1
20260903225426 21 226 12.9 27.4 0.00 0.00 0.00 74 1013.1
20260903224933 21 261 11.3 20.9 0.00 0.00 0.00 75 1013.1
20260903224422 20 268 9.7 32.2 0.00 0.00 0.00 75 1013.2
20260903223929 20 219 19.3 32.2 0.00 0.00 0.00 75 1013.2
20260903223459 20 217 12.9 30.6 0.00 0.00 0.00 75 1013.4
20260903222952 20 212 16.1 35.4 0.00 0.00 0.00 75 1013.3
20260903222436 20 242 14.5 35.4 0.00 0.00 0.00 74 1013.3
20260903221952 21 228 14.5 30.6 0.00 0.00 0.00 74 1013.4
20260903221418 21 218 11.3 24.1 0.00 0.00 0.00 74 1013.5
20260903220927 21 226 9.7 24.1 0.00 0.00 0.00 74 1013.5
20260903220429 21 206 12.9 25.7 0.00 0.00 0.00 74 1013.6
20260903215935 21 306 12.9 25.7 0.00 0.00 0.00 73 1013.5
20260903215451 21 242 12.9 24.1 0.00 0.00 0.00 74 1013.6
20260903214918 21 251 11.3 25.7 0.00 0.00 0.00 75 1013.7
20260903214447 21 242 14.5 25.7 0.00 0.00 0.00 75 1013.7
20260903213937 20 239 8.0 27.4 0.00 0.00 0.00 76 1013.7
20260903213423 20 282 12.9 27.4 0.00 0.00 0.00 75 1013.7
20260903212927 20 213 6.4 27.4 0.00 0.00 0.00 75 1013.8
20260903212434 20 282 12.9 27.4 0.00 0.00 0.00 75 1013.8
20260903211920 20 221 9.7 24.1 0.00 0.00 0.00 74 1013.9
20260903211426 20 256 9.7 24.1 0.00 0.00 0.00 74 1013.9
20260903210932 20 192 11.3 27.4 0.00 0.00 0.00 73 1014.0
20260903210420 21 249 11.3 27.4 0.00 0.00 0.00 73 1014.0
20260903205923 21 194 9.7 20.9 0.00 0.00 0.00 73 1014.0
20260903205425 21 234 11.3 20.9 0.00 0.00 0.00 73 1014.1
20260903204931 21 261 11.3 20.9 0.00 0.00 0.00 72 1014.0
20260903204417 21 227 8.0 19.3 0.00 0.00 0.00 73 1014.1
20260903203944 21 217 8.0 29.0 0.00 0.00 0.00 73 1014.0
20260903203432 20 249 8.0 25.7 0.00 0.00 0.00 74 1014.1
20260903202917 20 235 9.7 25.7 0.00 0.00 0.00 74 1014.1
20260903202426 20 250 11.3 24.1 0.00 0.00 0.00 75 1014.1
20260903201931 20 259 11.3 25.7 0.00 0.00 0.00 74 1014.0
20260903201445 20 278 12.9 24.1 0.00 0.00 0.00 74 1014.1
20260903200932 20 233 11.3 29.0 0.00 0.00 0.00 74 1014.1
20260903200417 20 211 12.9 20.9 0.00 0.00 0.00 74 1014.1
20260903195919 20 251 6.4 27.4 0.00 0.00 0.00 75 1014.2
20260903195424 20 242 16.1 27.4 0.00 0.00 0.00 74 1014.2
20260903194930 20 221 4.8 22.5 0.00 0.00 0.00 75 1014.2
20260903194417 20 240 8.0 25.7 0.00 0.00 0.00 76 1014.2
20260903193923 20 282 11.3 24.1 0.00 0.00 0.00 75 1014.5
20260903193431 20 226 14.5 24.1 0.00 0.00 0.00 75 1014.4
20260903192916 20 94 11.3 22.5 0.00 0.00 0.00 75 1014.6
20260903192425 20 242 12.9 20.9 0.00 0.00 0.00 74 1014.6
20260903191934 20 216 9.7 20.9 0.00 0.00 0.00 73 1014.7
20260903191421 20 242 9.7 19.3 0.00 0.00 0.00 73 1014.7
20260903190927 20 261 12.9 25.7 0.00 0.00 0.00 73 1014.7
20260903190457 20 203 8.0 25.7 0.00 0.00 0.00 73 1014.7
20260903185934 20 230 8.0 19.3 0.00 0.00 0.00 73 1014.7
20260903185420 20 270 8.0 20.9 0.00 0.00 0.00 73 1014.8
20260903184927 20 235 6.4 27.4 0.00 0.00 0.00 74 1014.9
20260903184431 20 203 9.7 19.3 0.00 0.00 0.00 74 1014.9
20260903183936 20 219 8.0 19.3 0.00 0.00 0.00 74 1014.9
20260903183446 20 194 9.7 17.7 0.00 0.00 0.00 74 1014.8
20260903182932 20 215 6.4 16.1 0.00 0.00 0.00 74 1014.9
20260903182439 20 246 9.7 20.9 0.00 0.00 0.00 74 1014.9
20260903181947 19 186 11.3 24.1 0.00 0.00 0.00 74 1014.9
20260903181434 19 177 12.9 25.7 0.00 0.00 0.00 73 1014.9
20260903180919 19 236 14.5 25.7 0.00 0.00 0.00 73 1014.8
20260903180424 19 239 11.3 25.7 0.00 0.00 0.00 73 1014.7
20260903175929 19 216 14.5 25.7 0.00 0.00 0.00 73 1014.7
20260903175435 20 232 12.9 27.4 0.00 0.00 0.00 73 1014.7
20260903174923 20 231 14.5 27.4 0.00 0.00 0.00 73 1014.7
20260903174428 20 213 8.0 20.9 0.00 0.00 0.00 73 1014.7
20260903173932 20 206 9.7 17.7 0.00 0.00 0.00 74 1014.6
20260903173439 19 222 8.0 19.3 0.00 0.00 0.00 74 1014.6
20260903172922 19 209 6.4 19.3 0.00 0.00 0.00 74 1014.6
20260903172425 19 186 4.8 22.5 0.00 0.00 0.00 74 1014.7
20260903171935 19 196 9.7 19.3 0.00 0.00 0.00 74 1014.7
20260903171419 19 207 8.0 22.5 0.00 0.00 0.00 75 1014.7
20260903170924 18 222 8.0 22.5 0.00 0.00 0.00 75 1014.7
20260903170431 18 242 9.7 22.5 0.00 0.00 0.00 76 1014.8
20260903165935 18 219 11.3 20.9 0.00 0.00 0.00 76 1015.0
20260903165419 18 222 4.8 20.9 0.00 0.00 0.00 76 1015.0
20260903164943 18 220 4.8 22.5 0.00 0.00 0.00 76 1015.0
20260903164428 18 218 11.3 22.5 0.00 0.00 0.00 76 1014.9